Location: Unspecified
(44.0704°N, 88.6889°W)
Time: 10:54:08
(UTC+02:00)

Vanguard 2 Rocket - Pass Details

Date: 12 August 2020
Orbit: 554 x 3326 km, 32.9° (Epoch: 22 September)

Event Time Altitude Azimuth Distance (km) Brightness Sun altitude
Rises 06:26:41 0° 269° (W) 4,857 10.9 -27.4°
Reaches altitude 10° 06:29:59 10° 258° (WSW) 4,232 10.4 -27.6°
Maximum altitude 06:39:58 30° 204° (SSW) 3,781 9.6 -28.3°
Enters shadow 06:41:10 30° 197° (SSW) 3,884 9.6 -28.4°
